Location: Chuathbaluk
(61.5726°N, 159.2454°W)
Time: 06:37:05
(UTC+00:00)

NUDT-PHONESAT - Pass Details

Date: 21 January 2021
Orbit: 479 x 498 km, 97.4° (Epoch: 08 March)

Event Time Altitude Azimuth Distance (km) Brightness Sun altitude
Rises 05:08:33 0° 198° (SSW) 2,572 ? -19.8°
Reaches altitude 10° 05:10:54 10° 213° (SSW) 1,698 ? -20.0°
Maximum altitude 05:13:55 24° 268° (W) 1,080 ? -20.4°
Drops below altitude 10° 05:16:58 10° 324° (NW) 1,718 ? -20.8°
Sets 05:19:22 0° 338° (NNW) 2,610 ? -21.0°
